Alexandria, LA

5:53 PM CDT on April 28, 2017 (GMT -0500)
Alexandria International

Weather History for KAEX - February, 2000

Change the Weather History Date:

Tuesday, February 1, 2000

  Actual Average Record
Temperature  
Mean Temperature 48 °F 49 °F  
Max Temperature 57 °F 60 °F 82 °F (1907)
Min Temperature 39 °F 39 °F 12 °F (1951)
Degree Days  
Heating Degree Days 17 16  
Month to date heating degree days 16  
Since 1 July heating degree days 1307  
Moisture  
Dew Point 32 °F    
Average Humidity 58    
Maximum Humidity 77    
Minimum Humidity 36    
Precipitation  
Precipitation 0.00 in 0.16 in 2.81 in (1952)
Month to date precipitation 0.16  
Year to date precipitation 5.38  
Snow  
Snow 0.00 in - 0.80 in (1951)
Month to date snowfall  
Since 1 July snowfall  
Snow Depth -    
Sea Level Pressure  
Sea Level Pressure 30.28 in    
Wind  
Wind Speed 4 mph (NE)    
Max Wind Speed 8 mph    
Max Gust Speed -    
Visibility 10 miles    
Events      
T = Trace of Precipitation, MM = Missing Value Source: NWS Daily Summary

Daily Weather History Graph

Daily Weather History Graph

Search for Another Location

Airport or City:

Trip Planner

Search our weather history database for the weather conditions in past years. The results will help you decide how hot, cold, wet, or windy it might be!

Date:

Astronomy

Feb. 01, 2000 Rise Set
Actual Time 7:03 AM CST 5:44 PM CST
Civil Twilight 6:37 AM CST 6:10 PM CST
Nautical Twilight 6:08 AM CST 6:39 PM CST
Astronomical Twilight 5:39 AM CST 7:08 PM CST
Moon 4:03 AM CST (2/1) 2:38 PM CST (2/1)
Length of Visible Light 11h 32m
Length of Day
10h 41m
Waning Crescent, 13% of the Moon is Illuminated
Feb 1
Waning Crescent
Feb 5
New
Feb 12
First Quarter
Feb 19
Full
Feb 26
Last Quarter

Hourly Weather History & Observations

Time (CST) Temp. Windchill Dew Point Humidity Pressure Visibility Wind Dir Wind Speed Gust Speed Precip Events Conditions
12:53 AM 41.0 °F 39.0 °F 32.0 °F 70% 30.26 in 10.0 mi East 3.5 mph - N/A   Scattered Clouds
1:53 AM 39.9 °F 37.8 °F 33.1 °F 77% 30.25 in 10.0 mi East 3.5 mph - N/A   Clear
2:53 AM 41.0 °F - 32.0 °F 70% 30.24 in 10.0 mi Calm Calm - N/A   Clear
3:53 AM 41.0 °F 39.0 °F 33.1 °F 73% 30.24 in 10.0 mi ENE 3.5 mph - N/A   Overcast
4:53 AM 42.1 °F 39.2 °F 32.0 °F 67% 30.24 in 10.0 mi ESE 4.6 mph - N/A   Overcast
5:53 AM 42.1 °F 39.2 °F 32.0 °F 67% 30.24 in 10.0 mi East 4.6 mph - 0.00 in   Mostly Cloudy
6:53 AM 41.0 °F 38.0 °F 32.0 °F 70% 30.26 in 10.0 mi NE 4.6 mph - N/A   Partly Cloudy
7:53 AM 42.1 °F 39.2 °F 32.0 °F 67% 30.27 in 10.0 mi ENE 4.6 mph - N/A   Partly Cloudy
8:53 AM 44.1 °F - 32.0 °F 63% 30.30 in 10.0 mi Calm Calm - N/A   Partly Cloudy
9:53 AM 46.9 °F - 33.1 °F 59% 30.32 in 10.0 mi Calm Calm - N/A   Overcast
10:53 AM 48.0 °F - 33.1 °F 56% 30.32 in 10.0 mi WSW 3.5 mph - N/A   Overcast
11:53 AM 51.1 °F - 33.1 °F 50% 30.30 in 10.0 mi NNE 5.8 mph - N/A   Overcast
12:53 PM 53.1 °F - 34.0 °F 48% 30.29 in 10.0 mi NNE 6.9 mph - N/A   Overcast
1:53 PM 55.0 °F - 32.0 °F 42% 30.27 in 10.0 mi Variable 4.6 mph - N/A   Overcast
2:53 PM 55.9 °F - 32.0 °F 40% 30.26 in 10.0 mi NNE 6.9 mph - N/A   Overcast
3:53 PM 57.9 °F - 30.9 °F 36% 30.25 in 10.0 mi NNE 8.1 mph - N/A   Scattered Clouds
4:53 PM 57.0 °F - 32.0 °F 39% 30.25 in 10.0 mi NNE 5.8 mph - N/A   Clear
5:53 PM 54.0 °F - 30.9 °F 41% 30.26 in 10.0 mi NE 3.5 mph - N/A   Clear
6:53 PM 46.0 °F - 32.0 °F 58% 30.28 in 10.0 mi Calm Calm - N/A   Clear
7:53 PM 46.9 °F - 32.0 °F 56% 30.30 in 10.0 mi NNE 5.8 mph - N/A   Clear
8:53 PM 46.9 °F - 32.0 °F 56% 30.33 in 10.0 mi NE 5.8 mph - N/A   Clear
9:53 PM 45.0 °F 41.8 °F 32.0 °F 60% 30.34 in 10.0 mi NNE 5.8 mph - N/A   Clear
10:53 PM 44.1 °F 40.1 °F 33.1 °F 65% 30.36 in 10.0 mi NNE 6.9 mph - N/A   Clear
11:53 PM 44.1 °F 40.1 °F 33.1 °F 65% 30.36 in 10.0 mi NE 6.9 mph - N/A   Clear